Weather History for Fayetteville, AR

Change the Weather History Date:

Saturday, May 26, 2012

  Actual Average Record
Temperature  
Mean Temperature 78 °F 68 °F  
Max Temperature 90 °F 78 °F 90 °F (1953)
Min Temperature 68 °F 57 °F 38 °F (1988)
Cooling Degree Days 13 4  
Month to date cooling degree days 62  
Year to date cooling degree days 90  
Growing Degree Days 28 (Base 50)    
Moisture  
Dew Point 64 °F    
Average Humidity 61    
Maximum Humidity 90    
Minimum Humidity 40    
Precipitation  
Precipitation 0.00 in 0.19 in 1.37 in (1955)
Month to date precipitation 5.13  
Year to date precipitation 19.30  
Sea Level Pressure  
Sea Level Pressure 29.98 in    
Wind  
Wind Speed 7 mph (South)    
Max Wind Speed 15 mph    
Max Gust Speed 23 mph    
Visibility 10 miles    
Events      
T = Trace of Precipitation, MM = Missing Value Source: NWS Daily Summary

Daily Weather History Graph

Daily Weather History Graph

Search for Another Location

Airport:

Trip Planner

Search our weather history database for the weather conditions in past years. The results will help you decide how hot, cold, wet, or windy it might be!

Date:

Astronomy

May. 26, 2012 Rise Set
Actual Time 6:03 AM CDT 8:24 PM CDT
Civil Twilight 5:34 AM CDT 8:53 PM CDT
Nautical Twilight 4:58 AM CDT 9:30 PM CDT
Astronomical Twilight 4:18 AM CDT 10:09 PM CDT
Moon 11:01 AM CDT 12:03 AM CDT
Length of Visible Light 15h 19m
Length of Day
14h 20m
Waxing Crescent, 28% of the Moon is Illuminated
May 26
Waxing Crescent
May 28
First Quarter
Jun 4
Full
Jun 11
Last Quarter
Jun 19
New

Hourly Weather History & Observations

Time (CDT) Temp. Heat Index Dew Point Humidity Pressure Visibility Wind Dir Wind Speed Gust Speed Precip Events Conditions
12:53 AM 78.1 °F - 66.0 °F 66% 29.93 in 10.0 mi South 10.4 mph 16.1 mph N/A   Clear
1:53 AM 75.9 °F - 66.0 °F 71% 29.94 in 10.0 mi SSE 3.5 mph - N/A   Clear
2:53 AM 75.0 °F - 66.0 °F 73% 29.94 in 10.0 mi Variable 4.6 mph - N/A   Clear
3:53 AM 73.0 °F - 66.0 °F 79% 29.96 in 10.0 mi Calm Calm - N/A   Clear
4:53 AM 69.1 °F - 66.0 °F 90% 29.97 in 10.0 mi Calm Calm - N/A   Clear
5:53 AM 68.0 °F - 64.9 °F 90% 29.96 in 8.0 mi Calm Calm - N/A   Clear
6:53 AM 69.1 °F - 66.0 °F 90% 29.98 in 10.0 mi Calm Calm - N/A   Clear
7:53 AM 75.0 °F - 66.9 °F 76% 30.00 in 10.0 mi Calm Calm - N/A   Clear
8:53 AM 78.1 °F - 66.9 °F 68% 30.01 in 10.0 mi South 9.2 mph - N/A   Clear
9:53 AM 80.1 °F 81.9 °F 64.9 °F 60% 30.02 in 10.0 mi South 13.8 mph 19.6 mph N/A   Clear
10:53 AM 82.9 °F 84.6 °F 64.9 °F 54% 30.03 in 10.0 mi South 13.8 mph 23.0 mph N/A   Clear
11:53 AM 84.9 °F 86.1 °F 64.0 °F 49% 30.03 in 10.0 mi South 15.0 mph 20.7 mph N/A   Clear
12:53 PM 84.0 °F 84.9 °F 63.0 °F 49% 30.02 in 10.0 mi South 11.5 mph - N/A   Clear
1:53 PM 88.0 °F 87.9 °F 61.0 °F 40% 30.00 in 10.0 mi South 9.2 mph - N/A   Clear
2:53 PM 88.0 °F 89.3 °F 64.0 °F 45% 29.99 in 10.0 mi South 8.1 mph - N/A   Clear
3:53 PM 87.1 °F 87.5 °F 62.1 °F 43% 29.98 in 10.0 mi SSE 11.5 mph 17.3 mph N/A   Clear
4:53 PM 88.0 °F 88.7 °F 63.0 °F 43% 29.97 in 10.0 mi SSE 10.4 mph 16.1 mph N/A   Clear
5:53 PM 88.0 °F 88.7 °F 63.0 °F 43% 29.96 in 10.0 mi South 8.1 mph - N/A   Clear
6:53 PM 87.1 °F 87.8 °F 63.0 °F 44% 29.95 in 10.0 mi SSE 6.9 mph - N/A   Clear
7:53 PM 82.0 °F 83.1 °F 63.0 °F 52% 29.96 in 10.0 mi South 9.2 mph - N/A   Clear
8:53 PM 79.0 °F - 63.0 °F 58% 29.95 in 10.0 mi SSE 5.8 mph - N/A   Clear
9:53 PM 77.0 °F - 62.1 °F 60% 29.95 in 10.0 mi SSE 6.9 mph - N/A   Clear
10:53 PM 73.0 °F - 62.1 °F 68% 29.97 in 10.0 mi South 9.2 mph - N/A   Clear
11:53 PM 75.2 °F - 62.6 °F 65% 30.00 in 10.0 mi SSE 6.9 mph - N/A   Clear